Regional Weather Roundup
Issued by NWS

Home | Current Version | Previous Version | Graphics & Text | Print | Product List | Glossary On
Versions: 1 2 3 4 5 6 7 8 9 10 11 12 13 14 15 16 17 18 19 20 21 22 23 24 25 26 27 28 29 30 31 32 33 34 35 36 37 38 39 40 41 42 43 44 45 46 47 48 49 50
000
ASUS45 KABQ 301610
RWRNM
WEATHER ROUNDUP FOR NEW MEXICO
NATIONAL WEATHER SERVICE ALBUQUERQUE NM
1000 AM MDT THU OCT 30 2014

NOTE: "FAIR" MEANS FEW OR NO CLOUDS BELOW 12,000 FEET AGL WITH NO
       SIGNIFICANT WEATHER OR OBSTRUCTIONS TO VISION.

      THIS PRODUCT IS RELEASED AS TWO VERSIONS.  ONE VERSION NEAR
      THE TOP OF THE HOUR CONTAINING PRELIMINARY DATA FROM ALBUQUERQUE
      AND OTHER STATIONS.  A FINAL VERSION WITH ADDITIONAL DATA IS
      ISSUED ABOUT 10 MINUTES AFTER THE HOUR.

NMZ501-503-504-510>518-301700-
NORTHWEST PLATEAU/NORTHCENTRAL MOUNTAINS

CITY           SKY/WX    TMP DP  RH WIND       PRES   REMARKS
FARMINGTON     SUNNY     43  20  39 SE7       30.37R
LOS ALAMOS     SUNNY     53  14  21 N3        30.42R
SANTA FE       SUNNY     55  13  18 N7        30.39R
TAOS           SUNNY     48  16  27 N3        30.43R
ANGEL FIRE     FAIR      39  13  35 CALM      30.48F

$$
NMZ402-403-502-505>509-301700-
WESTCENTRAL MOUNTAINS/SOUTHWEST MOUNTAINS

CITY           SKY/WX    TMP DP  RH WIND       PRES   REMARKS
GALLUP         SUNNY     47  19  33 NE9       30.39F
GRANTS         SUNNY     45  14  29 NW7       30.42S
SILVER CITY    SUNNY     63  32  31 SW3       30.33R

$$
NMZ407-409-411-412-301700-
SOUTHERN DESERTS

CITY           SKY/WX    TMP DP  RH WIND       PRES   REMARKS
LORDSBURG      FAIR      57  41  54 CALM      30.26S
DEMING         SUNNY     69  36  29 NE12      30.26R
LAS CRUCES     SUNNY     64  38  38 CALM      30.28R
HOLLOMAN AFB   MOSUNNY   59  37  43 S2        30.25R
T OR C         SUNNY     63  33  32 N5        30.30R

$$
NMZ519>523-301700-
CENTRAL VALLEYS/CENTRAL HIGHLANDS

CITY           SKY/WX    TMP DP  RH WIND       PRES   REMARKS
ALBUQUERQUE    SUNNY     53  14  21 N10       30.36R
DOUBLE EAGLE   SUNNY     57  12  17 N6        30.37R
MORIARTY ARPT  FAIR      58  15  18 N6        30.39S
CLINES CORNERS SUNNY     57  14  18 E18       30.40R
BELEN          FAIR      58  18  20 NW9       30.35S
SOCORRO        FAIR      55  25  31 N8        30.34R

$$
NMZ524>526-539-540-301700-
SOUTHCENTRAL MOUNTAINS

CITY           SKY/WX    TMP DP  RH WIND       PRES   REMARKS
RUIDOSO        SUNNY     61  19  20 N12       30.40R

$$
NMZ527>531-301700-
NORTHEAST HIGHLANDS/NORTHEAST PLAINS

CITY           SKY/WX    TMP DP  RH WIND       PRES   REMARKS
LAS VEGAS      SUNNY     55  17  22 N13       30.42R
RATON          SUNNY     57  22  25 NE13      30.40R
CLAYTON        SUNNY     61  22  22 N18       30.34R

$$
NMZ532>537-301700-
EASTCENTRAL PLAINS

CITY           SKY/WX    TMP DP  RH WIND       PRES   REMARKS
TUCUMCARI      SUNNY     65  26  23 NE14      30.29R
CANNON AFB     SUNNY     64  31  29 NE20G32   30.25R
CLOVIS AIRPORT SUNNY     63  36  36 NE22G29   30.28R

$$
NMZ028-029-538-301700-
SOUTHEAST PLAINS

CITY           SKY/WX    TMP DP  RH WIND       PRES   REMARKS
ROSWELL        SUNNY     63  33  32 NW12      30.25R
CARLSBAD       SUNNY     68  45  43 NW9       30.21R
HOBBS          SUNNY     68  36  30 NW17      30.20R


$$



USA.gov is the U.S. government's official web portal to all federal, state and local government web resources and services.